Погода в Ирте

Россия / Архангельская область     62°05′12″N   48°51′05″E
темп.,
°C
ветер,
м/с
пор.,
м/с
влажн.,
%
обл.,
%
осадки,
мм/ч
давл.,
гПа
погр.,
м
23 января, сб
сб2300:00−24вюв2697100 0.0 1025212
03:00−23вюв3895100 0.0 1024267
06:00−21вюв3894100 0.0 1023329
09:00−20юв4897100 0.6 1022412
12:00−18юв41095100 0.4 1021430
15:00−18юв4994100 0.5 1021512
18:00−18юв41094100 0.2 1019531
21:00−18юв41095100 0.6 1018518
24 января, вс
вс2400:00−19юв3895100 0.1 1020426
03:00−19юв4895100 0.3 1019398
06:00−15ююв249699 1.4 1014119
09:00−15ю249799 1.6 1015106
12:00−11ю2495100 0.1 1015191
15:00−14юв1297100 0.5 101870
18:00−6ю2796100 0.3 1015208
21:00−4ююз2698100 0.2 1015220
25 января, пн
пн2500:00+1ююз3997100 0.0 1014394
03:00−10юв2297100 0.4 101950
06:00+1юз41098100 0.1 1014390
09:00−5ююв2596100 0.4 1019199
12:00−2ююв3697100 0.3 1018257
15:00+1ююз31198100 0.4 1015374
18:00+1ююз3998100 0.1 1015326
21:00+1юз41197100 0.2 1014481
26 января, вт
вт2600:00+1юз31098100 0.1 1015355
03:00+2юз31098100 0.4 1015357
06:000юз2798100 0.0 1016238
09:000юз4995100 0.3 1016375
12:00−1юз3795100 0.0 1017442
15:00−3ююз3895100 0.1 1017382
18:00−5ююз369499 0.1 1017421
21:00−5ююв249699 0.1 1017162
27 января, ср
ср2700:00−6ююв2497100 0.0 1016110
03:00−4ююв2596100 0.1 1015258
06:00−5вюв2597100 0.1 1017168
09:00−4юв269793 0.1 1016225
12:00−3ююз3795100 0.8 1014425
15:00−6юв2497100 0.1 101997
18:00−3ююз279695 0.1 1015320
21:00−2ююв3894100 0.9 1012517